Total_Precipitation_Accumulation
1.25 1.21 1.16 1.13 1.06 1.02 1.01 1.01 0.94 0.88 0.83 0.79 0.76 0.75 0.68 0.56 0.46 0.43 0.36 0.37 0.38 0.44 0.62 0.83 1.03 1.31 1.60 1.67 1.69 1.55 1.44 1.39 1.26 1.12 1.09 1.22 1.30 1.27 1.21 1.26 1.18 1.01 0.97
1.38 1.35 1.31 1.19 1.11 1.04 0.99 0.98 0.95 0.90 0.85 0.79 0.72 0.65 0.65 0.63 0.55 0.51 0.46 0.43 0.41 0.41 0.52 0.72 0.93 1.16 1.53 1.75 1.83 1.95 1.76 1.64 1.58 1.38 1.15 1.13 1.21 1.25 1.27 1.28 1.33 1.24 1.10
1.61 1.50 1.46 1.37 1.22 1.14 1.12 1.08 1.07 1.01 0.97 0.88 0.79 0.71 0.64 0.64 0.58 0.56 0.53 0.50 0.49 0.44 0.47 0.61 0.78 1.00 1.25 1.56 1.81 2.06 2.18 1.93 1.85 1.78 1.51 1.24 1.21 1.30 1.36 1.40 1.42 1.47 1.34
1.75 1.75 1.63 1.53 1.36 1.32 1.29 1.24 1.17 1.13 1.04 0.97 0.90 0.81 0.71 0.67 0.63 0.59 0.56 0.54 0.55 0.52 0.50 0.55 0.61 0.79 1.03 1.32 1.60 1.90 2.41 2.35 2.13 2.03 1.97 1.63 1.34 1.30 1.35 1.44 1.52 1.56 1.63
1.82 1.90 1.91 1.78 1.64 1.55 1.45 1.35 1.24 1.17 1.12 1.05 1.01 0.94 0.84 0.75 0.71 0.70 0.63 0.52 0.49 0.53 0.53 0.54 0.57 0.65 0.83 1.08 1.39 1.71 2.30 2.60 2.53 2.43 2.35 2.16 1.74 1.45 1.38 1.44 1.57 1.63 1.74
1.74 1.78 1.87 1.94 1.91 1.85 1.72 1.56 1.44 1.27 1.16 1.11 1.13 1.13 1.00 0.86 0.80 0.77 0.74 0.63 0.51 0.47 0.51 0.54 0.57 0.59 0.69 0.88 1.14 1.43 1.84 2.29 2.53 2.65 2.66 2.69 2.46 1.97 1.67 1.59 1.66 1.80 1.90
1.69 1.72 1.67 1.77 1.84 1.83 1.77 1.69 1.61 1.54 1.40 1.27 1.32 1.39 1.30 1.06 0.89 0.81 0.78 0.76 0.66 0.54 0.50 0.53 0.57 0.61 0.64 0.75 0.92 1.13 1.45 1.88 2.25 2.50 2.60 2.71 2.91 2.72 2.26 1.95 1.87 1.95 2.08
1.60 1.69 1.72 1.65 1.64 1.66 1.67 1.63 1.59 1.56 1.52 1.39 1.37 1.47 1.49 1.42 1.11 0.83 0.76 0.75 0.74 0.70 0.61 0.55 0.56 0.61 0.66 0.69 0.71 0.85 1.09 1.46 1.95 2.39 2.62 2.71 2.89 3.13 2.94 2.47 2.20 2.15 2.26
1.54 1.55 1.65 1.67 1.61 1.57 1.57 1.55 1.48 1.42 1.42 1.33 1.19 1.35 1.45 1.28 1.06 0.87 0.76 0.68 0.66 0.72 0.70 0.63 0.58 0.56 0.61 0.68 0.67 0.67 0.80 1.08 1.55 2.04 2.52 2.81 2.96 3.26 3.44 3.18 2.73 2.48 2.53
1.57 1.49 1.49 1.55 1.59 1.54 1.47 1.45 1.47 1.42 1.43 1.41 1.24 1.09 1.09 1.04 1.04 0.92 0.81 0.77 0.71 0.68 0.70 0.67 0.64 0.58 0.57 0.62 0.68 0.67 0.71 0.88 1.21 1.72 2.22 2.78 3.15 3.41 3.82 3.82 3.52 3.06 2.83
1.58 1.51 1.48 1.47 1.48 1.48 1.40 1.37 1.43 1.46 1.47 1.43 1.33 1.14 1.01 0.89 0.85 0.94 0.81 0.75 0.82 0.79 0.74 0.73 0.70 0.67 0.62 0.60 0.63 0.67 0.77 0.88 1.13 1.51 1.96 2.57 3.34 3.66 4.08 4.29 3.92 3.36 2.97
1.63 1.52 1.42 1.40 1.37 1.34 1.33 1.30 1.31 1.32 1.37 1.39 1.32 1.20 1.14 1.08 0.92 0.91 0.87 0.70 0.71 0.76 0.80 0.82 0.84 0.79 0.74 0.71 0.69 0.80 0.86 0.94 1.11 1.37 1.62 2.03 2.72 3.48 3.96 4.26 4.09 3.59 3.16
1.65 1.56 1.48 1.37 1.32 1.27 1.24 1.24 1.27 1.28 1.24 1.27 1.29 1.22 1.12 1.02 0.94 0.97 1.07 0.98 0.86 0.77 0.83 0.87 0.84 0.85 0.84 0.85 0.85 0.90 0.88 0.91 0.98 1.20 1.32 1.42 1.82 2.50 3.29 3.93 4.24 4.02 3.55
1.52 1.45 1.49 1.42 1.32 1.28 1.27 1.25 1.23 1.24 1.27 1.23 1.17 1.16 1.17 1.08 1.04 1.09 1.20 1.29 1.25 0.96 0.82 0.83 0.80 0.78 0.85 0.85 0.87 0.94 0.80 0.86 0.91 1.03 1.13 1.20 1.35 1.72 2.37 3.17 3.98 4.46 4.19
1.48 1.46 1.47 1.47 1.39 1.38 1.41 1.40 1.36 1.28 1.28 1.29 1.25 1.18 1.19 1.16 1.12 1.09 1.11 1.24 1.50 1.38 0.93 0.70 0.71 0.75 0.80 0.86 0.86 0.82 0.75 0.82 0.87 0.95 1.06 1.13 1.22 1.42 1.79 2.37 3.00 3.92 4.55
1.48 1.47 1.49 1.51 1.45 1.38 1.45 1.50 1.44 1.36 1.37 1.34 1.35 1.34 1.22 1.13 1.16 1.19 1.23 1.20 1.26 1.39 1.15 0.69 0.61 0.67 0.78 0.94 1.03 0.89 0.84 0.94 0.94 0.94 0.96 0.99 1.09 1.28 1.54 1.86 2.30 2.90 3.82
1.48 1.43 1.40 1.44 1.50 1.46 1.40 1.48 1.45 1.39 1.40 1.34 1.31 1.36 1.27 1.17 1.25 1.30 1.36 1.36 1.29 1.31 1.33 0.86 0.68 0.72 0.92 1.05 1.11 1.02 1.00 0.97 0.92 0.95 0.95 1.00 1.04 1.17 1.39 1.61 1.85 2.23 2.90
1.48 1.39 1.34 1.37 1.43 1.45 1.42 1.43 1.42 1.37 1.37 1.35 1.31 1.33 1.33 1.26 1.27 1.31 1.40 1.40 1.31 1.23 1.30 1.13 0.89 0.89 1.00 1.13 1.16 1.13 1.11 1.07 0.93 0.94 0.95 1.03 1.08 1.15 1.30 1.47 1.63 1.87 2.26
1.57 1.44 1.35 1.36 1.44 1.50 1.46 1.39 1.44 1.40 1.30 1.24 1.25 1.30 1.32 1.32 1.26 1.24 1.33 1.38 1.32 1.27 1.29 1.30 1.08 0.97 1.05 1.20 1.33 1.33 1.27 1.24 1.10 1.04 1.00 1.05 1.13 1.15 1.22 1.36 1.55 1.70 1.88
1.59 1.52 1.39 1.34 1.42 1.55 1.56 1.53 1.56 1.51 1.38 1.24 1.14 1.16 1.24 1.38 1.38 1.38 1.41 1.39 1.43 1.49 1.46 1.44 1.29 1.15 1.18 1.27 1.44 1.51 1.51 1.42 1.32 1.17 1.16 1.17 1.21 1.23 1.21 1.22 1.28 1.40 1.57
1.41 1.45 1.45 1.39 1.42 1.64 1.87 1.99 1.86 1.57 1.38 1.30 1.12 1.04 1.13 1.39 1.60 1.76 1.81 1.67 1.68 1.83 1.80 1.74 1.60 1.43 1.31 1.37 1.49 1.48 1.56 1.49 1.46 1.35 1.26 1.23 1.16 1.14 1.12 1.14 1.18 1.24 1.35
1.36 1.38 1.40 1.39 1.38 1.57 1.97 2.19 1.82 1.44 1.29 1.27 1.20 1.07 1.08 1.34 1.51 1.67 1.82 1.79 1.80 1.97 2.08 2.03 1.87 1.61 1.30 1.20 1.28 1.48 1.69 1.88 1.84 1.53 1.37 1.36 1.16 1.15 1.11 1.04 1.17 1.25 1.30
1.38 1.37 1.34 1.34 1.33 1.40 1.77 1.98 1.73 1.39 1.26 1.20 1.16 1.11 1.13 1.22 1.36 1.38 1.52 1.58 1.58 1.72 1.95 2.06 2.01 1.59 1.37 1.27 1.48 1.73 1.77 1.89 1.79 1.68 1.66 1.72 1.38 1.25 1.13 1.15 1.27 1.25 1.30
1.35 1.34 1.34 1.30 1.27 1.33 1.63 1.86 1.67 1.37 1.28 1.23 1.21 1.13 1.06 1.10 1.23 1.40 1.50 1.48 1.38 1.42 1.63 1.81 2.00 1.79 1.58 1.61 1.92 2.20 2.29 2.29 2.02 1.87 1.82 2.03 1.67 1.41 1.29 1.25 1.31 1.24 1.22
1.35 1.30 1.28 1.31 1.26 1.26 1.55 1.88 1.74 1.40 1.31 1.25 1.24 1.15 1.03 1.00 1.22 1.41 1.38 1.36 1.29 1.31 1.42 1.61 1.78 1.86 1.87 2.00 2.30 2.73 2.91 2.89 2.59 2.24 1.99 2.02 1.92 1.74 1.70 1.66 1.56 1.43 1.25
1.28 1.29 1.24 1.23 1.22 1.19 1.40 1.80 1.89 1.45 1.32 1.24 1.24 1.19 1.24 1.21 1.33 1.35 1.25 1.33 1.44 1.31 1.23 1.27 1.34 1.40 1.44 1.58 1.99 2.42 2.79 2.93 2.70 2.59 2.23 2.04 2.02 2.05 2.43 2.21 1.83 1.52 1.34